• Join FlightAware (Why Join?)
  • Login
  • US Flag 
10:59AM EST


 

Airport Tracker/Info


-or-


 

Live Flight TrackerFlight Track Log ✈ VRT51 ✈ 16-Oct-2013 ✈ KBNA - KILM

Flight Track Log - Related Links

Times and Time Zones

All times are in EDT time to prevent confusion due to time zone crossing. See the VRT51 flight status page for this flight to view local times or setup timezone preferences in your user account.

Time Position Orientation Groundspeed Altitude Reporting Facility
EDT Latitude Longitude Course Direction KTS MPH feet Rate Location/Type
09:25AM 36.1000 -86.6833 149° Southeast 174 200 1,300  Level Nashville TRACON
09:26AM 36.0333 -86.6333 149° Southeast 265 305 4,200 2,696 Climbing Nashville TRACON
09:27AM 36.0333 -86.5500 90° East 273 314 7,500 3,045 Climbing Nashville TRACON
09:28AM 36.0397 -86.4219 86° East 315 362 10,900 2,500 Climbing Memphis Center
09:29AM 36.0422 -86.3064 88° East 326 375 13,000 1,750 Climbing Memphis Center
09:30AM 36.0428 -86.1958 90° East 347 399 14,400 1,600 Climbing Memphis Center
09:31AM 36.0469 -86.0700 88° East 361 415 16,200 1,700 Climbing Memphis Center
09:32AM 36.0464 -85.9389 90° East 373 429 17,800 1,745 Climbing Memphis Center
09:34AM 36.0411 -85.6797 91° East 395 455 21,000 1,782 Climbing Atlanta Center
09:35AM 36.0306 -85.5228 95° East 427 491 22,700 1,700 Climbing Atlanta Center
09:36AM 36.0200 -85.3583 94° East 463 533 24,400 1,700 Climbing Atlanta Center
09:37AM 36.0069 -85.1886 95° East 485 558 26,100 1,700 Climbing Atlanta Center
09:38AM 35.9731 -85.0239 104° East 491 565 27,800 1,600 Climbing Atlanta Center
09:39AM 35.9283 -84.8722 110° East 491 565 29,300 1,600 Climbing Atlanta Center
09:40AM 35.8814 -84.7078 109° East 503 579 31,000 1,700 Climbing Atlanta Center
09:41AM 35.8342 -84.5483 110° East 503 579 32,700 1,700 Climbing Atlanta Center
09:42AM 35.7867 -84.3869 110° East 503 579 34,400 1,150 Climbing Atlanta Center
09:43AM 35.7369 -84.2231 110° East 503 579 35,000 300 Climbing Atlanta Center
09:44AM 35.6869 -84.0517 110° East 514 592 35,000 100 Level Atlanta Center
09:45AM 35.6347 -83.8803 111° Southeast 525 604 35,200 850 Climbing Atlanta Center
09:46AM 35.5842 -83.7067 110° East 532 612 36,700 900 Climbing Atlanta Center
09:47AM 35.5317 -83.5361 111° Southeast 526 605 37,000 150 Climbing Atlanta Center
09:48AM 35.4806 -83.3628 110° East 526 605 37,000 100 Level Atlanta Center
09:49AM 35.4253 -83.1925 112° Southeast 531 611 37,200 800 Climbing Atlanta Center
09:50AM 35.3739 -83.0225 110° East 531 611 38,600 900 Climbing Atlanta Center
09:51AM 35.3181 -82.8372 110° East 524 603 39,000 200 Climbing Atlanta Center
09:52AM 35.2642 -82.6678 111° Southeast 529 609 39,000  Level Atlanta Center
09:53AM 35.2186 -82.5158 110° East 529 609 39,000  Level Atlanta Center
09:54AM 35.1597 -82.3289 111° Southeast 529 609 39,000  Level Atlanta Center
09:55AM 35.1117 -82.1778 111° Southeast 534 615 39,000  Level Atlanta Center
09:56AM 35.0567 -82.0089 112° Southeast 528 608 39,000 -400 Level Atlanta Center
09:57AM 35.0078 -81.8350 109° East 533 613 38,200 -839 Descending Atlanta Center
10:01AM 34.8572 -81.1672 105° East 532 612 35,000 -674 Descending Jacksonville Center
10:02AM 34.8172 -80.9936 106° East 538 619 35,000  Level Jacksonville Center
10:03AM 34.7769 -80.8250 106° East 520 598 35,000  Level Jacksonville Center
10:04AM 34.7386 -80.6542 105° East 525 604 35,000  Level Jacksonville Center
10:05AM 34.7000 -80.4808 105° East 525 604 35,000 -151 Level Jacksonville Center
10:06AM 34.6550 -80.3081 108° East 525 604 34,700 -893 Descending Jacksonville Center
10:07AM 34.5953 -80.1536 115° Southeast 524 603 33,200 -1,550 Descending Jacksonville Center
10:08AM 34.5111 -80.0303 130° Southeast 488 562 31,600 -1,916 Descending Jacksonville Center
10:09AM 34.4267 -79.8969 127° Southeast 488 562 29,400 -2,579 Descending Jacksonville Center
10:10AM 34.3872 -79.7350 106° East 485 558 26,400 -2,650 Descending Jacksonville Center
10:11AM 34.3481 -79.5906 108° East 493 567 24,100 -1,210 Descending Jacksonville Center
10:12AM 34.3067 -79.4386 108° East 488 562 24,000 -350 Descending Jacksonville Center
10:13AM 34.2628 -79.2922 110° East 474 545 23,400 -500 Descending Jacksonville Center
10:14AM 34.2519 -79.1319 95° East 468 539 23,000 -900 Descending Jacksonville Center
10:15AM 34.2450 -78.9739 93° East 468 539 21,600 -1,828 Descending Jacksonville Center
10:16AM 34.2119 -78.7361 99° East 478 550 18,400 -2,026 Descending Washington Center
10:17AM 34.1717 -78.5939 109° East 461 531 16,500 -1,932 Descending Washington Center
10:18AM 34.1481 -78.4550 102° East 451 519 14,600 -1,966 Descending Washington Center
10:19AM 34.1803 -78.3231 74° East 396 456 12,600 -2,050 Descending Washington Center
10:20AM 34.1619 -78.2147 102° East 344 396 10,500 -2,500 Descending Washington Center
10:21AM 34.1047 -78.1553 139° Southeast 277 319 7,600 -2,876 Descending Washington Center
10:22AM 34.0728 -78.0839 118° Southeast 268 308 4,700 -2,319 Descending Washington Center
10:23AM 34.1194 -78.0503 31° Northeast 173 199 3,000 -1,361 Descending Washington Center
10:24AM 34.1700 -78.0342 15° North 149 171 2,000 -496 Descending Washington Center
10:25AM 34.1978 -78.0025 43° Northeast 149 171 2,000 -347 Level Washington Center
10:26AM 34.2211 -77.9706 49° Northeast 131 151 1,300 -645 Descending Washington Center
10:27AM 34.2428 -77.9408 49° Northeast 118 136 700 -590 Descending Washington Center